Regional Weather Roundup
Issued by NWS

Home | Current Version | Previous Version | Text Only | Print | Product List | Glossary Off
Versions: 1 2 3 4 5 6 7 8 9 10 11 12 13 14 15 16 17 18 19 20 21 22 23 24 25 26 27 28 29 30 31 32 33 34 35 36 37 38 39 40 41 42 43 44 45 46 47 48 49 50

000
ASUS43 KOAX 290302
RWRNE

WEATHER ROUNDUP FOR NEBRASKA
NATIONAL WEATHER SERVICE OMAHA NE
1000 PM CDT FRI AUG 28 2015

NOTES: SATELLITE DATA IS BEING USED TO AUGMENT CLOUD COVER ABOVE
       12000 FEET.
       "FAIR" INDICATES FEW OR NO CLOUDS BELOW 12,000 FEET WITH NO
       SIGNIFICANT WEATHER AND/OR OBSTRUCTIONS TO VISIBILITY.

  * THESE STATIONS DO NOT REPORT WEATHER SUCH AS RAIN...SNOW OR FOG.

NEZ001>004-019>022-054>056-290400-
NEBRASKA PANHANDLE

CITY           SKY/WX    TMP DP  RH WIND       PRES   REMARKS
SCOTTSBLUFF    CLEAR     66  56  70 E3        30.15R
ALLIANCE       CLEAR     64  49  57 CALM      30.14R
CHADRON        CLEAR     71  50  47 VRB5      30.08R
KIMBALL        CLEAR     64  46  50 SE5       30.21R
SIDNEY         CLEAR     69  42  37 NE3       30.18R
$$

NEZ057>060-069>072-079>082-290400-
SOUTHWEST NEBRASKA

CITY           SKY/WX    TMP DP  RH WIND       PRES   REMARKS
NORTH PLATTE   CLEAR     64  60  87 CALM      30.08R
IMPERIAL       CLEAR     68  58  70 E5        30.10R
LEXINGTON      CLEAR     66  62  86 N3        30.05R
MC COOK        CLEAR     68  61  78 MISG      30.07R
OGALLALA       CLEAR     70  54  57 CALM      30.10R
$$

NEZ005>010-023>029-035>040-094-290400-
NORTH CENTRAL NEBRASKA

CITY           SKY/WX    TMP DP  RH WIND       PRES   REMARKS
VALENTINE      CLEAR     65  60  84 SE3       30.06R
AINSWORTH      CLEAR     65  63  94 CALM      30.08R
BROKEN BOW     CLEAR     64  61  90 NW3       30.06R
O`NEILL        CLEAR     66  65  96 CALM      30.05R
ORD            CLEAR     61  59  93 NW6       30.03R
THEDFORD       CLEAR     66  61  84 CALM      30.09R
$$

NEZ041-046>049-061>064-073>077-083>087-290400-
SOUTH CENTRAL NEBRASKA

CITY           SKY/WX    TMP DP  RH WIND       PRES   REMARKS
GRAND ISLAND   CLEAR     65  61  87 N7        30.03R
AURORA         CLEAR     65  64  97 N6        30.01R
HASTINGS       CLEAR     63  60  90 NW3       30.03R
HEBRON         CLEAR     68  62  80 CALM      29.99R
HOLDREGE       CLEAR     64  61  90 CALM      30.04R
KEARNEY *      CLEAR     63  55  77 N7        30.04R
YORK           MOCLDY    66  64  94 NW3       30.01R
$$

NEZ011>018-030>034-042>045-290400-
NORTHEAST NEBRASKA

CITY           SKY/WX    TMP DP  RH WIND       PRES   REMARKS
NORFOLK        MOCLDY    64  61  90 NE8       30.01R
ALBION         CLEAR     64  61  89 CALM      30.02R
BLAIR          CLOUDY    62  60  92 N16G22    29.96R
COLUMBUS *     MOCLDY   N/A N/A N/A NE8       30.01R
FREMONT        CLOUDY    65  60  85 N8        29.98R
TEKAMAH        CLOUDY    64  61  90 N16G23    29.97R
$$

NEZ050>053-065>068-078-088>093-290400-
SOUTHEAST NEBRASKA

CITY           SKY/WX    TMP DP  RH WIND       PRES   REMARKS
LINCOLN        CLOUDY    67  62  84 N7        29.98R
OMAHA EPPLEY   CLOUDY    64  63  96 N10       29.94R
BEATRICE       PTCLDY    67  62  83 N9        29.97R
FALLS CITY     PTCLDY    69  66  90 W5        29.93R
NEBRASKA CITY  CLOUDY    67  65  93 N5        29.95R
PLATTSMOUTH    CLOUDY    66  63  89 NW10G16   29.94R
$$

NEZ044-045-051>053-067-290400-
OMAHA AREA

CITY           SKY/WX    TMP DP  RH WIND       PRES   REMARKS
EPPLEY FIELD   CLOUDY    64  63  96 N10       29.94R
BLAIR          CLOUDY    62  60  92 N16G22    29.96R
FREMONT        CLOUDY    65  60  85 N8        29.98R
MILLARD        CLOUDY    66  63  90 NW6       29.94R
OFFUTT AFB     CLOUDY    66  63  91 NW12      29.93R
PLATTSMOUTH    CLOUDY    66  63  89 NW10G16   29.94R
WAHOO          CLOUDY    64  61  88 N14G20    29.97R
$$


USA.gov is the U.S. government's official web portal to all federal, state and local government web resources and services.